GW7284 Weather Reports


time (UTC)temp
F
wind
direction
speed
knots
gust
knots
rain 1hr
in
rain 24hr
in
rain mn
in
humidity
%
barometer
mb
20260510213837 71 49 0.0 0.9 0.00 0.02 0.02 39 997.7
20260510213333 70 326 0.9 0.9 0.00 0.02 0.02 43 997.6
20260510212830 70 323 0.9 0.9 0.00 0.02 0.02 46 997.6
20260510212327 70 323 0.0 0.0 0.00 0.02 0.02 44 997.7
20260510211824 71 320 0.9 0.9 0.00 0.02 0.02 37 997.8
20260510211320 71 244 1.7 1.7 0.00 0.02 0.02 34 997.8
20260510210815 71 268 1.7 1.7 0.00 0.02 0.02 36 997.9
20260510210310 68 30 0.0 0.0 0.00 0.02 0.02 42 997.8
20260510205810 68 30 0.0 0.9 0.00 0.02 0.02 41 997.9
20260510205306 68 252 0.0 0.9 0.00 0.02 0.02 34 998.1
20260510204801 68 31 0.9 0.9 0.00 0.02 0.02 38 998.3
20260510204258 69 22 1.7 2.6 0.00 0.02 0.02 34 998.3
20260510203755 69 261 0.0 0.9 0.00 0.02 0.02 42 998.3
20260510203253 69 221 0.9 1.7 0.00 0.02 0.02 35 998.1
20260510202752 69 31 0.0 0.9 0.00 0.02 0.02 37 998.0
20260510202248 68 259 0.0 1.7 0.00 0.02 0.02 41 998.2
20260510201745 69 19 0.0 2.6 0.00 0.02 0.02 36 998.1
20260510201242 71 277 2.6 2.6 0.00 0.02 0.02 34 998.1
20260510200738 71 316 0.0 1.7 0.00 0.02 0.02 43 998.0
20260510200236 70 275 0.9 1.7 0.00 0.02 0.02 36 997.9
20260510195733 71 269 1.7 2.6 0.00 0.02 0.02 33 998.2
20260510195230 70 239 0.0 2.6 0.00 0.02 0.02 34 997.9
20260510194729 69 10 0.9 1.7 0.00 0.02 0.02 33 998.3
20260510194226 69 32 0.9 0.9 0.00 0.02 0.02 34 998.0
20260510193721 70 28 2.6 3.5 0.00 0.02 0.02 34 998.1
20260510193216 70 222 0.0 2.6 0.00 0.02 0.02 35 998.0
20260510192712 71 259 0.9 1.7 0.00 0.02 0.02 35 998.3
20260510192208 70 208 1.7 1.7 0.00 0.02 0.02 33 998.2
20260510191704 69 32 1.7 3.5 0.00 0.02 0.02 35 998.3
20260510191201 69 24 4.3 5.2 0.00 0.02 0.02 37 998.2
20260510190658 69 341 0.9 1.7 0.00 0.02 0.02 43 998.2
20260510190155 68 86 1.7 1.7 0.00 0.02 0.02 40 998.1
20260510185652 66 34 0.0 0.9 0.00 0.02 0.02 43 998.2
20260510185150 65 26 0.9 3.5 0.00 0.02 0.02 38 998.0
20260510184646 64 28 0.0 0.0 0.00 0.02 0.02 47 998.0
20260510184142 65 29 0.9 2.6 0.00 0.02 0.02 39 997.9
20260510183638 65 16 0.0 1.7 0.00 0.02 0.02 39 998.1
20260510183133 66 79 0.0 0.9 0.00 0.02 0.02 44 997.9
20260510182630 67 114 0.9 1.7 0.00 0.02 0.02 43 997.8
20260510182125 67 289 0.9 2.6 0.00 0.02 0.02 47 997.9
20260510181623 68 47 1.7 7.8 0.00 0.02 0.02 45 998.0
20260510181119 68 25 0.9 1.7 0.00 0.02 0.02 45 998.0
20260510180615 67 273 1.7 2.6 0.00 0.02 0.02 44 997.9
20260510180113 66 292 0.9 1.7 0.00 0.02 0.02 47 997.7
20260510175609 66 317 0.9 5.2 0.00 0.02 0.02 47 997.6
20260510175104 66 320 0.9 2.6 0.00 0.02 0.02 49 997.9
20260510174603 66 349 0.9 3.5 0.00 0.02 0.02 48 998.0
20260510174100 65 335 0.9 2.6 0.00 0.02 0.02 54 997.9
20260510173555 65 342 0.9 1.7 0.00 0.02 0.02 46 998.2
20260510173052 65 280 2.6 2.6 0.00 0.02 0.02 44 998.2
20260510172548 65 274 1.7 1.7 0.00 0.02 0.02 46 998.3
20260510172044 64 346 0.0 0.9 0.00 0.02 0.02 43 998.3
20260510171540 65 259 0.9 5.2 0.00 0.02 0.02 47 998.2
20260510171038 65 331 0.9 0.9 0.00 0.02 0.02 43 998.4
20260510170534 65 309 1.7 2.6 0.00 0.02 0.02 43 998.2
20260510170031 66 349 0.9 2.6 0.00 0.02 0.02 45 998.3
20260510165526 65 232 0.0 0.9 0.00 0.02 0.02 50 998.2
20260510165023 65 309 1.7 2.6 0.00 0.02 0.02 44 998.1
20260510164520 64 32 1.7 1.7 0.00 0.02 0.02 49 998.4
20260510164016 64 245 0.9 1.7 0.00 0.02 0.02 44 998.3
20260510163512 64 36 0.9 2.6 0.00 0.02 0.02 50 998.2
20260510163008 63 342 0.9 1.7 0.00 0.02 0.02 50 998.4
20260510162504 63 351 0.9 0.9 0.00 0.02 0.02 53 998.1
20260510162000 62 314 0.9 2.6 0.00 0.02 0.02 54 998.2
20260510161456 62 310 0.9 0.9 0.00 0.02 0.02 51 998.2
20260510160954 62 341 0.9 0.9 0.00 0.02 0.02 52 998.4
20260510160451 63 270 0.9 1.7 0.00 0.02 0.02 50 998.3
20260510155949 63 349 0.9 0.9 0.00 0.02 0.02 56 998.5
20260510155446 63 3 0.0 2.6 0.00 0.02 0.02 57 998.4
20260510154943 62 14 0.9 1.7 0.00 0.02 0.02 54 998.7
20260510154439 62 74 0.9 0.9 0.00 0.02 0.02 55 998.5
20260510153937 61 46 1.7 2.6 0.00 0.02 0.02 50 998.5
20260510153434 62 68 0.9 2.6 0.00 0.02 0.02 50 998.3
20260510152931 62 253 3.5 5.2 0.00 0.02 0.02 51 998.2
20260510152429 62 359 0.0 1.7 0.00 0.02 0.02 57 998.2
20260510151925 62 332 0.9 1.7 0.00 0.02 0.02 52 998.0
20260510151422 61 344 0.9 0.9 0.00 0.02 0.02 57 998.1
20260510150918 61 16 0.9 0.9 0.00 0.02 0.02 56 997.8
20260510150414 62 343 0.9 2.6 0.00 0.02 0.02 52 998.0
20260510145910 61 43 1.7 3.5 0.00 0.02 0.02 53 997.7
20260510145407 61 18 0.9 1.7 0.00 0.02 0.02 57 997.9
20260510144903 61 42 1.7 1.7 0.00 0.02 0.02 60 997.6
20260510144355 61 357 0.0 0.9 0.00 0.02 0.02 58 997.7
20260510143855 60 341 0.0 1.7 0.00 0.02 0.02 65 997.6
20260510143351 60 15 0.0 2.6 0.00 0.02 0.02 56 997.2
20260510142848 59 288 2.6 3.5 0.00 0.02 0.02 56 997.6
20260510142345 58 77 0.9 3.5 0.00 0.02 0.02 58 997.5
20260510141841 58 4 0.0 0.0 0.00 0.02 0.02 62 997.2
20260510141339 58 357 0.9 1.7 0.00 0.02 0.02 58 997.4
20260510140836 58 20 0.0 0.9 0.00 0.02 0.02 63 997.1
20260510140332 57 4 0.9 1.7 0.00 0.02 0.02 62 997.1
20260510135831 57 268 0.9 1.7 0.00 0.02 0.02 66 996.8
20260510135327 57 283 0.0 2.6 0.00 0.02 0.02 65 996.6
20260510134825 56 277 0.0 1.7 0.00 0.02 0.02 64 996.6
20260510134322 56 290 0.0 0.9 0.00 0.02 0.02 66 996.9
20260510133817 56 254 0.9 1.7 0.00 0.02 0.02 66 996.9
20260510133314 56 289 0.0 0.0 0.00 0.02 0.02 71 996.8
20260510132809 55 319 0.0 1.7 0.00 0.02 0.02 69 997.2
20260510132308 55 334 0.0 0.0 0.00 0.02 0.02 69 996.7
20260510131804 55 315 0.0 0.0 0.00 0.02 0.02 73 996.6
20260510131302 55 323 0.0 0.9 0.00 0.02 0.02 71 996.6
20260510130758 54 50 0.0 0.9 0.00 0.02 0.02 72 996.6
20260510130255 54 56 0.0 0.9 0.00 0.02 0.02 74 996.4
20260510125752 54 25 0.0 0.0 0.00 0.02 0.02 73 996.6
20260510125248 54 339 0.9 0.9 0.00 0.02 0.02 72 996.7
20260510124745 54 44 0.9 1.7 0.00 0.02 0.02 72 996.8
20260510124242 54 16 0.9 2.6 0.00 0.02 0.02 73 996.5
20260510123737 54 6 0.9 0.9 0.00 0.02 0.02 78 996.2
20260510123234 54 359 0.0 1.7 0.00 0.02 0.02 81 996.3
20260510122730 54 357 0.9 0.9 0.00 0.02 0.02 78 996.2
20260510122226 54 358 0.9 0.9 0.00 0.02 0.02 78 996.1
20260510121722 53 330 0.9 1.7 0.00 0.02 0.02 78 995.9
20260510121220 53 359 0.0 0.9 0.00 0.02 0.02 81 995.9
20260510120717 53 298 0.9 1.7 0.00 0.02 0.02 78 995.6
20260510120214 54 12 0.9 0.9 0.00 0.02 0.02 80 995.4
20260510115709 53 345 0.0 0.0 0.00 0.02 0.02 81 995.2
20260510115208 53 344 0.9 0.9 0.00 0.02 0.02 80 995.5
20260510114703 53 317 0.0 0.0 0.00 0.02 0.02 82 995.4
20260510114200 53 349 0.9 0.9 0.00 0.02 0.02 82 995.3
20260510113655 53 334 0.0 0.9 0.00 0.02 0.02 82 995.3
20260510113152 54 333 0.0 0.9 0.00 0.02 0.02 82 995.1
20260510112649 54 15 2.6 6.1 0.00 0.02 0.02 81 994.7
20260510112146 54 23 0.0 1.7 0.00 0.02 0.02 83 994.9
20260510111642 54 346 0.0 1.7 0.00 0.02 0.02 82 994.7
20260510111138 54 344 0.0 0.9 0.00 0.02 0.02 84 994.5
20260510110633 54 348 0.9 1.7 0.00 0.02 0.02 84 994.3
20260510110131 54 338 0.9 0.9 0.00 0.02 0.02 85 994.3
20260510105627 54 335 0.0 0.9 0.00 0.02 0.02 84 994.4
20260510105126 54 314 0.9 3.5 0.00 0.02 0.02 85 994.1
20260510104624 54 1 0.0 0.0 0.00 0.02 0.02 87 993.8
20260510104120 54 358 0.0 0.0 0.00 0.02 0.02 87 993.9
20260510103617 55 359 0.0 0.9 0.00 0.02 0.02 86 993.8
20260510103113 55 20 0.9 1.7 0.00 0.02 0.02 89 993.7
20260510102609 55 347 0.0 0.0 0.00 0.02 0.02 90 993.6
20260510102105 55 334 0.0 0.9 0.00 0.02 0.02 91 993.6
20260510101603 55 334 0.0 0.9 0.00 0.02 0.02 91 993.4
20260510101101 55 352 0.0 0.9 0.00 0.02 0.02 91 993.3
20260510100556 55 347 0.0 0.0 0.00 0.02 0.02 91 993.2
20260510100054 55 344 0.0 0.0 0.00 0.02 0.02 92 993.5
20260510095550 55 343 0.0 0.9 0.00 0.02 0.02 93 993.3
20260510095049 56 17 0.0 0.0 0.00 0.02 0.02 95 992.9
20260510094544 56 16 0.9 0.9 0.00 0.02 0.02 95 993.2
20260510094040 56 24 0.9 0.9 0.00 0.02 0.02 96 993.0
20260510093536 56 338 0.0 0.0 0.00 0.02 0.02 96 993.1
20260510093033 56 337 0.0 0.0 0.00 0.02 0.02 96 992.9
20260510092530 56 337 0.0 0.0 0.00 0.02 0.02 96 993.0
20260510092029 56 338 0.0 0.0 0.00 0.02 0.02 96 992.8
20260510091526 56 337 0.0 0.0 0.00 0.02 0.02 96 992.8
20260510091022 56 337 0.0 0.0 0.00 0.02 0.02 96 992.9
20260510090520 56 337 0.9 0.9 0.00 0.02 0.02 96 993.0
20260510090015 56 278 0.0 0.0 0.00 0.02 0.02 96 992.9
20260510085510 56 278 0.0 0.0 0.00 0.02 0.02 96 992.9
20260510085006 57 278 0.0 0.0 0.00 0.02 0.02 96 992.7
20260510084503 56 278 0.0 0.0 0.00 0.02 0.02 96 992.7
20260510083959 56 278 0.0 0.0 0.00 0.02 0.02 96 992.4
20260510083457 57 278 0.0 0.0 0.00 0.02 0.02 96 992.6
20260510082957 57 278 0.0 0.0 0.00 0.02 0.02 96 992.7
20260510082455 57 278 0.0 0.0 0.00 0.02 0.02 96 992.3
20260510081954 57 278 0.0 0.0 0.00 0.02 0.02 96 992.0
20260510081450 57 278 0.0 0.0 0.00 0.02 0.02 95 992.1
20260510080947 57 278 0.0 0.0 0.00 0.02 0.02 95 992.1
20260510080445 57 278 0.0 0.0 0.00 0.02 0.02 95 992.0
20260510075942 57 278 0.0 0.0 0.00 0.02 0.02 95 992.0
20260510075440 58 278 0.0 0.0 0.00 0.02 0.02 95 991.8
20260510074937 58 278 0.0 0.0 0.00 0.02 0.02 95 991.7
20260510074434 58 278 0.0 0.0 0.00 0.02 0.02 95 991.4
20260510073930 58 278 0.0 0.0 0.00 0.02 0.02 94 991.7
20260510073425 58 278 0.0 0.0 0.00 0.02 0.02 95 991.6
20260510072922 58 278 0.0 0.0 0.00 0.02 0.02 95 991.5
20260510072419 58 278 0.0 0.0 0.00 0.02 0.02 94 991.4
20260510071914 58 278 0.0 0.0 0.00 0.02 0.02 94 991.4
20260510071411 58 278 0.0 0.0 0.00 0.02 0.02 94 991.4
20260510070910 58 278 0.0 0.0 0.00 0.02 0.02 94 991.3
20260510070407 58 278 0.0 0.0 0.00 0.02 0.02 94 991.5
20260510065902 58 278 0.0 0.0 0.00 0.02 0.02 94 991.2
20260510065358 59 278 0.0 0.0 0.00 0.02 0.02 94 991.1
20260510064855 59 277 0.0 0.0 0.00 0.02 0.02 94 991.2
20260510064353 59 277 0.0 0.0 0.00 0.02 0.02 94 991.3
20260510063849 59 277 0.0 0.0 0.00 0.02 0.02 94 991.3
20260510063346 59 277 0.0 0.0 0.00 0.02 0.02 93 991.4
20260510062843 59 277 0.0 0.0 0.00 0.02 0.02 93 991.4
20260510062338 59 294 0.0 0.0 0.00 0.02 0.02 93 991.0
20260510061833 59 295 0.9 1.7 0.00 0.02 0.02 94 991.0
20260510061330 59 304 0.0 1.7 0.00 0.02 0.02 94 990.7
20260510060826 60 341 0.0 0.0 0.00 0.02 0.02 94 990.7
20260510060324 60 336 0.9 1.7 0.00 0.02 0.02 94 990.7
20260510055820 60 351 1.7 1.7 0.00 0.02 0.02 94 991.0
20260510055319 60 338 0.9 1.7 0.00 0.02 0.02 94 990.7
20260510054819 60 30 0.9 1.7 0.00 0.02 0.02 94 990.9
20260510054315 60 45 0.9 1.7 0.00 0.02 0.02 94 990.9
20260510053810 60 31 0.9 0.9 0.00 0.02 0.02 94 990.7
20260510053305 60 40 0.9 2.6 0.00 0.02 0.02 93 990.6
20260510052802 60 96 0.9 2.6 0.00 0.02 0.02 93 991.1
20260510052258 60 5 0.0 0.9 0.00 0.02 0.02 93 991.0
20260510051754 60 355 0.9 0.9 0.00 0.02 0.02 92 990.3
20260510051251 60 49 0.9 0.9 0.00 0.02 0.02 93 990.1
20260510050748 60 53 0.0 0.0 0.09 0.02 0.02 92 989.7
20260510050245 61 64 0.0 0.0 0.26 0.02 0.02 91 989.1
20260510045741 61 63 0.0 0.0 0.17 0.14 0.14 90 989.6
20260510045238 60 52 0.0 1.7 0.07 0.11 0.11 93 989.9
20260510044735 60 191 0.0 0.0 0.07 0.11 0.11 94 990.0
20260510044233 60 191 0.0 0.0 0.09 0.10 0.10 93 990.1
20260510043727 61 192 0.0 0.0 0.00 0.08 0.08 93 989.9
20260510043225 61 192 0.0 0.0 0.07 0.08 0.08 93 990.2
20260510042722 61 131 1.7 1.7 0.07 0.08 0.08 92 990.1
20260510042218 61 29 0.0 0.0 0.09 0.07 0.07 91 990.2
20260510041715 61 28 0.9 0.9 0.26 0.07 0.07 91 990.3
20260510041212 61 34 1.7 1.7 0.09 0.04 0.04 89 990.8
20260510040709 61 1 0.0 0.9 0.07 0.03 0.03 90 990.2
20260510040206 62 4 0.0 0.9 0.07 0.03 0.03 89 990.2
20260510035701 62 358 1.7 1.7 0.00 0.02 0.02 88 990.2
20260510035157 62 5 0.9 0.9 0.00 0.02 0.02 88 990.2
20260510034653 62 12 2.6 3.5 0.00 0.02 0.02 87 990.2
20260510034151 62 293 1.7 2.6 0.00 0.02 0.02 87 989.5
20260510033647 62 14 0.9 1.7 0.00 0.02 0.02 87 989.6
20260510033145 62 11 0.9 5.2 0.09 0.02 0.02 86 989.8
20260510032641 63 68 1.7 7.0 0.09 0.02 0.02 85 989.8
20260510032136 63 348 1.7 6.1 0.00 0.00 0.00 85 989.7
20260510031632 63 14 2.6 3.5 0.00 0.00 0.00 84 989.9
20260510031129 64 13 1.7 7.0 0.00 0.00 0.00 81 990.0
20260510030628 64 43 2.6 5.2 0.00 0.00 0.00 79 989.7
20260510030126 65 38 5.2 9.6 0.00 0.00 0.00 76 989.8
20260510025623 66 353 2.6 7.8 0.00 0.00 0.00 73 989.9
20260510025121 67 8 6.1 12.2 0.00 0.00 0.00 67 990.2
20260510024617 68 45 5.2 11.3 0.00 0.00 0.00 61 989.6
20260510024114 69 6 0.0 0.0 0.00 0.00 0.00 55 987.8
20260510023610 70 6 0.0 0.0 0.00 0.00 0.00 54 987.8
20260510023108 70 6 0.0 0.0 0.00 0.00 0.00 53 987.3
20260510022607 70 6 0.0 0.0 0.00 0.00 0.00 54 987.4
20260510022102 70 6 0.0 0.0 0.00 0.00 0.00 54 987.2
20260510021558 70 6 0.0 0.0 0.00 0.00 0.00 53 987.2
20260510021056 70 6 0.0 0.0 0.00 0.00 0.00 52 987.1
20260510020555 70 6 0.0 0.0 0.00 0.00 0.00 51 987.2
20260510020051 70 6 0.0 0.0 0.00 0.00 0.00 52 987.2
20260510015547 70 6 0.0 0.0 0.00 0.00 0.00 52 987.1
20260510015044 70 6 0.0 0.0 0.00 0.00 0.00 52 987.0
20260510014540 71 6 0.0 0.0 0.00 0.00 0.00 51 986.8
20260510014038 71 6 0.0 0.0 0.00 0.00 0.00 51 986.9
20260510013532 71 6 0.0 0.0 0.00 0.00 0.00 51 986.7
20260510013028 71 6 0.0 0.0 0.00 0.00 0.00 51 986.5
20260510012528 72 6 0.0 0.0 0.00 0.00 0.00 51 986.6
20260510012025 73 6 0.0 0.0 0.00 0.00 0.00 50 986.6
20260510011524 73 5 0.0 0.0 0.00 0.00 0.00 48 986.5
20260510011020 73 6 0.0 0.0 0.00 0.00 0.00 47 986.7
20260510010517 73 6 0.0 0.0 0.00 0.00 0.00 46 986.2
20260510010014 74 6 0.0 0.0 0.00 0.00 0.00 46 986.5
20260510005510 74 6 0.0 0.0 0.00 0.00 0.00 43 986.4
20260510005008 75 6 0.0 0.0 0.00 0.00 0.00 43 986.6
20260510004505 76 6 0.0 0.0 0.00 0.00 0.00 42 986.5
20260510004003 77 6 0.0 0.0 0.00 0.00 0.00 39 986.4
20260510003459 78 324 0.0 0.0 0.00 0.00 0.00 39 986.4
20260510002954 78 324 0.0 0.0 0.00 0.00 0.00 38 986.2
20260510002451 78 324 0.0 0.0 0.00 0.00 0.00 38 986.3
20260510001947 79 324 0.0 0.9 0.00 0.00 0.00 42 986.1
20260510001445 79 323 0.0 0.0 0.00 0.00 0.00 39 986.3
20260510000942 80 323 0.0 0.9 0.00 0.00 0.00 39 986.1
20260510000440 80 322 0.0 0.0 0.00 0.00 0.00 39 986.2
20260509235935 81 322 0.0 0.0 0.00 0.00 0.00 36 986.0
20260509235432 82 322 0.0 0.9 0.00 0.00 0.00 34 986.4
20260509234928 82 75 0.0 0.9 0.00 0.00 0.00 34 986.1
20260509234425 83 128 0.9 1.7 0.00 0.00 0.00 36 986.1
20260509233923 83 241 0.9 0.9 0.00 0.00 0.00 32 986.0
20260509233420 83 120 0.9 0.9 0.00 0.00 0.00 34 986.2
20260509232916 83 1 0.0 1.7 0.00 0.00 0.00 34 986.1
20260509232414 83 5 1.7 2.6 0.00 0.00 0.00 32 986.0
20260509231909 82 95 0.9 1.7 0.00 0.00 0.00 32 986.2
20260509231406 82 21 2.6 3.5 0.00 0.00 0.00 30 986.1
20260509230905 83 19 2.6 5.2 0.00 0.00 0.00 31 986.1
20260509230401 83 340 0.9 1.7 0.00 0.00 0.00 31 986.1
20260509225857 83 24 0.9 3.5 0.00 0.00 0.00 31 986.1
20260509225354 84 325 1.7 2.6 0.00 0.00 0.00 29 986.0
20260509224849 83 165 0.9 1.7 0.00 0.00 0.00 30 986.1
20260509224345 83 126 3.5 3.5 0.00 0.00 0.00 30 986.3
20260509223843 83 262 2.6 2.6 0.00 0.00 0.00 30 986.0
20260509223339 83 135 0.9 3.5 0.00 0.00 0.00 30 986.3
20260509222837 84 144 1.7 2.6 0.00 0.00 0.00 31 986.2
20260509222332 84 42 2.6 2.6 0.00 0.00 0.00 33 985.9
20260509221827 84 126 0.9 2.6 0.00 0.00 0.00 29 986.1
20260509221325 83 105 0.9 2.6 0.00 0.00 0.00 33 986.1
20260509220825 83 104 1.7 2.6 0.00 0.00 0.00 29 986.2
20260509220321 83 66 0.9 3.5 0.00 0.00 0.00 30 986.3
20260509215817 83 133 0.9 5.2 0.00 0.00 0.00 32 986.1
20260509215314 83 142 1.7 2.6 0.00 0.00 0.00 31 986.1
20260509214811 83 16 3.5 3.5 0.00 0.00 0.00 31 986.1
20260509214308 83 118 0.9 2.6 0.00 0.00 0.00 34 986.2